Location: Mentone
(34.5413°N, 85.5351°W)
Time: 01:31:43
(UTC-05:00)

ATLAS 5 CENTAUR R/B - Visible Passes

Search period start: 02 August 2014 00:00
Search period end: 12 August 2014 00:00
Orbit: 724 x 939 km, 63.4° (Epoch: 15 July)

Date Brightness Start Highest point End Pass type
(mag) Time Alt. Az. Time Alt. Az. Time Alt. Az.
06 Aug 4.6 05:23:25 10° SE 05:26:03 14° ESE 05:28:45 10° ENE visible
07 Aug 4.7 05:05:14 10° SE 05:07:33 13° ESE 05:09:55 10° E visible
08 Aug 4.7 04:47:06 10° SE 04:49:03 12° ESE 04:51:02 10° E visible
09 Aug 4.7 04:29:06 10° ESE 04:30:33 11° ESE 04:32:01 10° E visible
10 Aug 4.8 04:11:28 10° ESE 04:12:03 10° ESE 04:12:39 10° E visible
11 Aug 2.0 05:32:15 10° SSW 05:37:22 84° WNW 05:42:48 10° NNE visible
